DECAYED

STARLINK-1673, 46327 (Decayed)

Orbit data source: Space-Track

STARLINK-1673, 46327 was a payload satellite owned by SpaceX/Seattle (US) in LEO that was launched on Thu, 03 Sep 2020 UTC via an FALCON 9 launch vehicle from the Air Force Eastern Test Range (AFETR). Payload-class satellites include a variety of spacecraft equipped with specific instruments for various scientific and technological missions. These include communications satellites like Starlink; space stations such as the ISS; scientific satellites like the Hubble; Earth observation satellites from companies like Planet Labs, Umbra, and HawkEye 360; GPS; miniature CubeSats for education and research; and military/defense satellites.

Not visible in the next 10 days
Identifier
46327, 2020-062C
Orbit
Decayed
Country
Flag of USUS
Related business
Manufacturer
SpaceX/Seattle
Mission
Decayed Commercial Communications
Bus & Motor
STARLINK, Unknown motor
Mass
260 kg wet, ~248 kg dry
Launch date (UTC)
2020-09-03 (5 years ago)
Launch vehicle
FALCON 9
Launch site
Air Force Eastern Test Range (AFETR)
Object type
Payload
Rocket body
Debris
Shape & HBR
Box + 1 Pan, 10.1 m
Radar Cross Section
13.562 m², Large (>1 m²)

Expand to show TLE details & history
Last TLE update: 3 months ago

TLE from 3 months ago
0 STARLINK-1673
1 46327U 20062C   25194.15636507  .12983415  12604-4  33680-3 0  9999
2 46327  53.0026 283.7160 0009148 309.1012 134.9043 16.45128228269612
Epoch: 2025-07-13T03:45Z
TLE epoch observation values (Epoch: 2025-07-13T03:45:09.942Z)
Latitude
52.7575°
Longitude
16.35247°
Altitude
162.791 km
Speed
7.813 km/s
True Right ascension
00h 15m 42s
True Declination
52° 34' 36"
Sunlit
Object was in daylight at epoch
Visualization orbit readout
Latitude
Unknown
Longitude
Unknown
Altitude
Unknown
Speed
Unknown
Apparent Right ascension
Unknown
Apparent Declination
Unknown
Sunlit
N/A
Visualization observer readout
Local Sidereal Time
20:54:25
Azimuth
Unknown
Elevation
Unknown
Doppler factor
Unknown
Orbital elements
Apogee altitude
158.466 km
Perigee altitude
146.517 km
Semi-major axis
6,530.629 km
Eccentricity
0.00091
Inclination
53.0026°
RAAN
283.716°
Arg. of periapsis
309.1012°
True anomaly
134.97849°
Mean anomaly
134.9043°
Eccentric anomaly
134.9414°
Mean motion
4.11255 °/min
Orbital period
87.54 mins
BSTAR
0.0003368
Loading maneuver chart data...
Computing Atmospheric mass density...
Loading historical data...
Loading historical data...
Loading historical data...
Loading historical data...
Loading historical data...
Loading historical data...
Loading historical data...

Documentation

Showing up to 5 results
|